Home > Weather > Spokane > Past weeks

Flag for U.S.A. Weather for the Past 2 Weeks in Spokane, Washington, U.S.A.

Now
28 °F

Clear.


Feels Like: 28 °F
Forecast: 27 / 42 °F
Wind: No wind

Location: Felts Field

Current Time: Feb 7, 2016 at 3:45:11 AM

Latest Report: Feb 7, 2016 at 2:53 AM


Visibility: 8 mi

Pressure: 30.57 "Hg (28.45 "Hg at 569m altitude)

Humidity: 89%

Dew point: 25 °F

Location of SpokaneLocation

Historic Weather in Spokane — Graph

°F

Spokane Temperature Yesterday

Maximum temperature yesterday: 47 °F (at 12:53 AM)
Minimum temperature yesterday: 31 °F (at 9:53 PM)
Average temperature yesterday: 39 °F

High & Low Weather Summary for the Past Weeks

 TemperatureHumidityPressure
High50 °F (Feb 5, 1:53 PM)97% (Jan 25, 12:53 PM)30.54 "Hg (Jan 25, 12:53 PM)
Low22 °F (Feb 3, 2:53 AM)52% (Feb 5, 9:53 PM)29.63 "Hg (Jan 29, 12:53 PM)
Average36 °F84%30.14 "Hg
* Reported Jan 23 1:00 AM — Feb 7 1:53 AM, Spokane, Weather by CustomWeather, © 2016

Note: Actual official high and low records may vary slightly from our data, if they occured in-between our weather recording intervals... More about our weather records

Advertising

Spokane Weather History for the Previous 24 Hours

 ConditionsComfort  
Time TempWeatherWind HumidityBarometerVisibility
1:53 AM
Sun, Feb 7
28 °FIce fog.No wind93%30.54 "Hg2 mi
12:53 AM28 °FIce fog.3 mph93%30.53 "Hg6 mi
11:53 PM
Sat, Feb 6
31 °FClear.3 mph89%30.53 "Hg10 mi
10:53 PM32 °FClear.6 mph88%30.50 "Hg10 mi
9:53 PM31 °FClear.5 mph92%30.48 "Hg10 mi
8:53 PM32 °FClear.5 mph88%30.48 "Hg10 mi
7:53 PM33 °FClear.No wind88%30.47 "Hg10 mi
6:53 PM34 °FClear.No wind82%30.45 "Hg10 mi
5:53 PM40 °FClear.No wind68%30.44 "Hg10 mi
4:53 PM41 °FSunny.6 mph67%30.43 "Hg10 mi
3:53 PM42 °FSunny.8 mph65%30.42 "Hg10 mi
2:53 PM42 °FSunny.8 mph65%30.41 "Hg10 mi
1:53 PM42 °FSunny.8 mph65%30.40 "Hg10 mi
12:53 PM42 °FScattered clouds.6 mph65%30.40 "Hg10 mi
11:53 AM41 °FPassing clouds.8 mph67%30.40 "Hg10 mi
10:53 AM40 °FSunny.6 mph70%30.39 "Hg10 mi
9:53 AM39 °FSunny.3 mph73%30.38 "Hg10 mi
8:53 AM37 °FPassing clouds.9 mph76%30.35 "Hg10 mi
7:53 AM37 °FSunny.9 mph73%30.34 "Hg10 mi
6:53 AM37 °FPassing clouds.8 mph73%30.28 "Hg10 mi
5:53 AM39 °FClear.14 mph67%30.25 "Hg10 mi
4:53 AM40 °FClear.12 mph63%30.22 "Hg10 mi
3:53 AM42 °FClear.12 mph60%30.19 "Hg10 mi
Weather by CustomWeather, © 2016

See weather overviewHow to use our weather pages